Back to catalog

ONEWEB-0687

AliveCommunicationsPO
NORAD 61595·PAYLOAD·🇬🇧 United Kingdom

Launched Oct 20, 2024 from Vandenberg Space Force Base

Loading…

Next Passes (next 24 hours)

TLE

FreshSource: CelesTrak SupGP

Epoch: Sep 14, 2026, 13:20 UTC

1 61595C 24188B   26257.55573333  .00000660  00000+0  17023-2 0  2578
2 61595  87.9205 348.1253 0001858 117.6451 356.3804 13.17650886    17

Track ONEWEB-0687 in real time with AllMySat

Download on the App Store